Home   Weather   Hamilton   Past weeks

Flag for Bermuda Past Weather in Hamilton, Bermuda — Yesterday and Last 2 Weeks

Now
72 °F

Passing clouds.


Feels Like: 72 °F
Forecast: 69 / 71 °F
Wind: 24 mph from Northwest

Location: Bermuda

Current Time: Dec 7, 2016 at 8:18:07 pm

Latest Report: Dec 7, 2016 at 6:55 pm


Visibility: N/A

Pressure: 29.89 "Hg

Humidity: 78%

Dew Point: 64 °F

Location of HamiltonLocation

Past Weather in Hamilton — Graph

°F

Hamilton Temperature Yesterday

Maximum temperature yesterday: 72 °F (at 10:55 am)
Minimum temperature yesterday: 66 °F (at 3:55 pm)
Average temperature yesterday: 69 °F

High & Low Weather Summary for the Past Weeks

 TemperatureHumidityPressure
High75 °F (Dec 1, 11:55 am)94% (Dec 6, 2:55 pm)30.33 "Hg (Dec 6, 2:55 pm)
Low63 °F (Nov 25, 6:55 am)46% (Nov 28, 9:55 am)29.83 "Hg (Dec 7, 5:55 am)
Average68 °F65%30.08 "Hg
* Reported Nov 22 6:55 pm — Dec 7 6:55 pm, Hamilton, Weather by CustomWeather, © 2016

Note: Actual official high and low records may vary slightly from our data, if they occured in-between our weather recording intervals... More about our weather records

Advertising

Hamilton Weather History for the Previous 24 Hours

Scroll right to see more
 ConditionsComfort  
Time TempWeatherWind HumidityBarometerVisibility
6:55 pm
Wed, Dec 7
72 °FPassing clouds.24 mph78%29.89 "HgN/A
5:55 pm73 °FPassing clouds.23 mph78%29.86 "HgN/A
4:55 pm73 °FScattered clouds.22 mph83%29.86 "Hg6 mi
3:55 pm73 °FScattered clouds.23 mph83%29.83 "Hg5 mi
2:55 pm75 °FBroken clouds.25 mph83%29.83 "Hg5 mi
1:55 pm75 °FPartly sunny.25 mph83%29.83 "Hg6 mi
12:55 pm73 °FBroken clouds.26 mph89%29.83 "HgN/A
11:55 am75 °FPartly sunny.29 mph83%29.83 "HgN/A
10:55 am73 °FSprinkles. Broken clouds.28 mph83%29.86 "Hg6 mi
9:55 am73 °FScattered showers. Broken clouds.26 mph83%29.86 "HgN/A
8:55 am73 °FCloudy.28 mph83%29.86 "HgN/A
7:55 am73 °FMostly cloudy.26 mph83%29.86 "HgN/A
6:55 am72 °FScattered showers. Mostly cloudy.26 mph83%29.86 "HgN/A
5:55 am72 °FPartly cloudy.26 mph83%29.83 "HgN/A
4:55 am72 °FMostly cloudy.25 mph83%29.86 "HgN/A
3:55 am72 °FScattered showers. Overcast.23 mph83%29.86 "HgN/A
2:55 am72 °FMostly cloudy.22 mph83%29.86 "HgN/A
1:55 am72 °FOvercast.21 mph83%29.89 "HgN/A
12:55 am70 °FScattered showers. Overcast.14 mph88%29.92 "HgN/A
11:55 pm
Tue, Dec 6
68 °FScattered showers. Overcast.10 mph94%29.95 "HgN/A
10:55 pm66 °FOvercast.No wind94%29.98 "HgN/A
9:55 pm66 °FScattered showers. Mostly cloudy.3 mph94%29.98 "HgN/A
8:55 pm66 °FScattered showers. Mostly cloudy.No wind94%29.98 "HgN/A
Weather by CustomWeather, © 2016

See weather overviewHow to use our weather pages